Torna al catalogo

FSKL5695-14

AttivoComunicazioniSSO
NORAD 64885·PAYLOAD·🇷🇺 Russia
Questo nome del satellite non è ancora stato confermato da fonti ufficiali.

Lanciato Jul 25, 2025 da Vostochny Cosmodrome

Loading…

Prossimi Passaggi (prossime 24 ore)

TLE

AggiornatoSource: Space-Track

Epoca: Sep 14, 2026, 14:30 UTC

1 64885U 25155K   26257.60438299  .00027867  00000-0  58626-3 0  9992
2 64885  97.4601 230.2281 0006637 160.2328 199.9179 15.45248960 94699

Traccia FSKL5695-14 in tempo reale con AllMySat

Download on the App Store